Location: Unspecified
(49.2170°N, 0.0000°E)
Time: 05:52:45
(UTC+00:00)

Courier 1B Rocket - Pass Details

Date: 27 January 2021
Orbit: 920 x 1202 km, 28.3° (Epoch: 05 March)

Event Time Altitude Azimuth Distance (km) Brightness Sun altitude
Rises 08:16:59 0° 235° (SW) 3,735 7.8 4.7°
Reaches altitude 10° 08:21:53 10° 204° (SSW) 2,859 7.6 5.3°
Maximum altitude 08:24:01 12° 186° (S) 2,778 7.9 5.6°
Drops below altitude 10° 08:26:12 10° 168° (SSE) 2,924 8.4 5.9°
Sets 08:31:24 0° 138° (SE) 3,956 10.4 6.5°
